Location: Forest
(37.3641°N, 79.2902°W)
Time: 02:51:25
(UTC+00:00)

ACS3 Solar Sail - Pass Details

Date: 11 October 2024
Orbit: 961 x 1022 km, 97.5° (Epoch: 03 November)

Event Time Altitude Azimuth Distance (km) Brightness Sun altitude
Exits shadow 00:32:58 39° 79° (E) 1,495 2.3 -22.0°
Maximum altitude 00:33:23 39° 70° (ENE) 1,486 2.3 -22.1°
Drops below altitude 10° 00:39:15 10° 4° (N) 2,836 4.3 -23.2°
Sets 00:41:55 0° 357° (N) 3,792 5.0 -23.7°
